Regional Weather Roundup
Issued by NWS

Home | Current Version | Previous Version | Text Only | Print | Product List | Glossary On
Versions: 1 2 3 4 5 6 7 8 9 10 11 12 13 14 15 16 17 18 19 20 21 22 23 24 25 26 27 28 29 30 31 32 33 34 35 36 37 38 39 40 41 42 43 44 45 46 47 48 49 50
000
ASUS46 KSTO 191609
RWRCA

NORTHERN AND CENTRAL CA REGIONAL WEATHER ROUNDUP
NATIONAL WEATHER SERVICE SACRAMENTO CA
800 AM PST FRI DEC 19 2014

NOTE: FAIR INDICATES FEW OR NO CLOUDS BELOW 12,000 FEET WITH NO
SIGNIFICANT WEATHER AND/OR OBSTRUCTIONS TO VISIBILITY.

CAZ001-003-191700-
NORTHWEST AREA

CITY           SKY/WX    TMP DP  RH WIND       PRES   REMARKS
CRESCENT CITY  CLOUDY    52  49  89 S16G24    30.03F
ARCATA         NOT AVBL
SHELTER COVE   NOT AVBL
UKIAH          CLOUDY    52  50  93 CALM      30.11R
$$

CAZ006-505>513-191700-
BAY AREA

CITY           SKY/WX    TMP DP  RH WIND       PRES   REMARKS
SANTA ROSA     RAIN      54  53  97 E7        30.10R
SAN RAFAEL     N/A       57  MM  MM MISG
NAPA           CLOUDY    55  52  89 SE7       30.11R
CONCORD        CLOUDY    57  50  77 S9        30.12R
OAKLAND CITY   N/A       57  MM  MM MISG
OAKLAND        CLOUDY    56  50  80 SE20      30.12S
SAN FRAN CITY  N/A       55  MM  98 MISG
SAN FRAN ARPT  CLOUDY    57  55  93 SE6       30.12R
LIVERMORE      CLOUDY    58  48  69 S6        30.13R
HAYWARD        CLOUDY    58  49  72 S12       30.13R
REDWOOD CITY   N/A       MM  MM  MM MISG
MOFFETT ARPT   CLOUDY    55  49  80 SE9       30.15R
SAN JOSE ARPT  CLOUDY    54  47  77 SE8       30.15R
$$
CAZ034-037-514>518-191700-
CENTRAL COAST

CITY           SKY/WX    TMP DP  RH WIND       PRES   REMARKS
WATSONVILLE    CLOUDY    54  52  93 CALM      30.18R
SALINAS        CLOUDY    52  47  83 E14       30.16S
MONTEREY       CLOUDY    53  46  77 SE3       30.17R
PT PIEDRAS BLS NOT AVBL
SAN LUIS OBISP MOCLDY    49  47  93 CALM      30.21F
SANTA MARIA    MOCLDY    51  46  83 SE3       30.21F
$$
CAZ015-016-191700-
NORTHERN SACRAMENTO VALLEY

CITY           SKY/WX    TMP DP  RH WIND       PRES   REMARKS
REDDING        CLOUDY    52  49  89 SW10      30.09R
RED BLUFF      CLOUDY    51  48  89 S17G24    30.11R
OROVILLE       RAIN      51  48  89 CALM      30.14R FOG
$$
CAZ016>018-191700-
SOUTHERN SACRAMENTO VALLEY

CITY           SKY/WX    TMP DP  RH WIND       PRES   REMARKS
AUBURN         CLOUDY    50  41  71 SE12      30.12S
BEALE AFB      LGT RAIN  54  46  76 S3        30.11R
LINCOLN        CLOUDY    55  41  58 SE16G22   30.10R
MARYSVILLE     LGT RAIN  53  47  79 MISG      30.12R
SAC INTL ARPT  CLOUDY    54  46  74 S15       30.11R
MATHER AIRPORT CLOUDY    54  46  76 S10       30.13R
DOWNTOWN SAC   N/A       54  MM  MM MISG
SAC EXEC ARPT  CLOUDY    55  47  74 SE9       30.13R
VACAVILLE      CLOUDY    52  49  89 S5        30.13R
TRAVIS AFB     CLOUDY    52  49  89 S6        30.11R
$$
CAZ019>021-191700-
SAN JOAQUIN VALLEY

CITY           SKY/WX    TMP DP  RH WIND       PRES   REMARKS
STOCKTON       CLOUDY    52  46  80 SE12      30.14R
MODESTO        CLOUDY    51  44  77 SE8       30.16R
MERCED         CLOUDY    47  42  83 MISG      30.18S
LEMOORE        MOCLDY    45  43  93 SE12      30.19F
FRESNO         CLOUDY    46  42  86 SE8       30.20F
HANFORD        PTCLDY    44  42  93 SE6       30.21F
PORTERVILLE    CLEAR     43  39  87 CALM      30.22S
BAKERSFIELD    CLEAR     47  41  80 E3        30.22S
$$
CAZ011-012-071-191700-
NORTHERN MOUNTAINS

CITY           SKY/WX    TMP DP  RH WIND       PRES   REMARKS
YREKA          CLOUDY    39  38  96 N6        30.03R WCI  35
MOUNT SHASTA   LGT RAIN  42  39  89 CALM      30.03R FOG
ALTURAS        CLOUDY    37  34  89 S9        30.03R WCI  30
$$
CAZ011-012-071-191700-
SIERRA NEVADA MTNS

CITY           SKY/WX    TMP DP  RH WIND       PRES   REMARKS
BLUE CANYON    CLOUDY    38  29  70 SE12G25   30.12F WCI  30
TRUCKEE        NOT AVBL
TAHOE VLY ARPT CLOUDY    41  18  39 S20G28    30.08F
MAMMOTH LAKES  FAIR      19  19 100 NW5       30.18F WCI  13
$$



USA.gov is the U.S. government's official web portal to all federal, state and local government web resources and services.